Location: Cz?stochówka
(50.8142°N, 19.0915°E)
Time: 09:40:49
(UTC+00:00)

ARIANE 6 FM1 Upper Stage - Pass Details

Date: 13 January 2026
Orbit: 522 x 608 km, 62.0° (Epoch: 18 February)

Event Time Altitude Azimuth Distance (km) Brightness Sun altitude
Exits shadow 05:13:47 18° 258° (WSW) 1,352 4.1 -13.2°
Maximum altitude 05:14:43 19° 240° (WSW) 1,294 4.1 -13.1°
Drops below altitude 10° 05:17:35 10° 194° (SSW) 1,782 5.3 -12.6°
Sets 05:20:15 0° 176° (S) 2,682 6.5 -12.2°
